Wind_Speed
123 126 128 128 128 129 129 129 129 130 133 138 144 146 144 143 145 144 141 141 141 139 137 138 139 140 139 137 136 135 134 133 132 131 130 129 128 127 126 125 124 123 122 121 120 119 118 116 114 111 109 107 105 103 102 101 100 99 99 99 98 98 98 97 97 97 98 99 100 101 102 103 105 106 107 109 110 112 114 115 117 118 120 121 122 124 125
128 131 132 133 133 133 133 133 133 134 138 143 146 145 144 145 147 145 143 143 142 140 139 140 140 139 137 136 135 134 133 132 131 130 130 129 127 126 125 124 124 123 122 121 120 118 115 113 110 108 106 104 103 101 101 100 99 98 97 97 97 96 96 96 95 95 95 96 97 98 99 100 102 103 104 105 106 108 109 111 112 114 115 117 118 119 120
134 135 136 137 137 137 138 137 137 139 143 146 146 145 145 146 145 144 145 145 143 140 140 140 139 137 136 135 135 133 132 131 130 130 129 128 127 126 125 125 123 122 121 119 117 114 111 109 107 105 103 102 100 99 98 98 97 96 95 95 95 95 95 94 94 95 95 95 96 97 98 99 100 100 101 103 104 105 106 107 108 109 110 112 113 114 116
138 138 139 140 141 142 142 140 140 143 147 148 146 145 144 144 144 145 146 145 142 140 139 139 138 137 136 135 133 132 131 130 130 129 128 127 126 126 125 123 122 120 117 114 112 109 107 106 104 103 101 100 98 97 96 95 95 94 94 93 93 93 93 93 94 94 94 95 95 96 97 97 98 99 100 101 102 103 104 105 106 107 108 108 109 111 112
141 141 142 143 145 147 145 143 144 147 149 148 145 144 143 143 145 145 144 142 140 139 138 137 136 136 134 133 131 130 129 129 128 127 126 125 125 124 122 120 118 115 112 109 107 106 105 104 102 101 100 99 98 97 96 95 94 93 93 93 93 93 93 93 93 93 93 94 94 94 95 96 96 97 98 99 99 100 101 102 103 104 105 106 107 108 109
145 146 147 149 150 150 147 146 148 149 148 146 145 144 144 144 144 143 141 139 138 137 136 136 135 133 132 130 129 128 127 127 127 125 124 123 122 120 117 114 112 109 107 105 104 103 102 101 101 100 99 99 98 97 96 95 94 93 92 92 92 92 92 92 92 92 92 92 92 93 93 94 94 95 96 96 96 97 97 97 98 99 100 102 103 105 106
150 151 152 154 154 151 148 148 148 147 145 146 147 146 145 142 141 140 139 137 136 135 135 134 132 130 128 127 126 126 126 127 125 123 121 119 116 113 111 108 107 105 104 103 102 101 101 100 100 99 98 98 98 97 96 95 94 93 92 91 91 91 91 91 91 91 91 91 91 91 92 92 93 93 94 94 94 94 95 95 96 96 97 98 99 100 101
154 154 156 157 155 152 148 146 146 147 148 148 148 146 142 139 138 137 136 135 135 134 132 130 128 127 126 124 124 124 125 124 121 118 116 113 110 108 106 105 104 103 102 102 101 101 100 100 99 99 98 98 97 97 96 94 93 92 91 91 91 91 91 91 91 91 91 90 91 91 91 91 92 92 92 92 92 93 93 94 94 95 95 96 97 97 98
157 157 157 157 154 151 147 146 148 150 149 147 146 144 139 135 133 133 134 134 133 131 128 126 125 124 123 122 122 122 121 117 113 111 109 107 105 104 104 103 103 102 102 101 101 100 100 99 99 99 98 97 97 96 95 94 93 92 92 91 91 91 91 90 90 90 90 90 90 91 91 91 91 91 91 92 92 92 92 92 93 94 94 95 95 95 95
157 157 156 156 154 150 147 148 150 150 148 146 144 141 135 129 128 131 131 130 128 126 125 123 122 120 119 117 117 117 113 109 107 106 104 103 103 103 103 103 103 102 101 101 100 99 99 99 98 98 97 96 96 95 94 93 93 92 92 91 91 91 90 90 90 89 89 89 90 90 90 90 90 90 91 91 91 91 91 91 92 93 93 93 93 94 94
157 157 157 156 154 151 149 149 149 148 145 142 139 135 130 126 127 129 127 125 124 123 121 120 118 116 114 111 109 108 106 104 104 103 103 103 103 103 103 103 103 102 101 100 99 99 98 98 97 97 96 96 95 95 94 93 92 91 91 91 91 91 90 90 89 89 88 89 89 89 89 89 89 90 90 90 90 90 90 90 91 91 91 91 91 93 94
158 158 158 157 155 151 148 148 146 143 139 135 133 131 128 126 126 126 124 122 121 119 117 115 112 110 107 104 103 103 102 102 102 102 102 102 103 103 103 103 102 100 99 98 98 97 97 97 96 96 95 95 94 94 93 92 92 91 91 91 90 90 90 89 88 88 88 88 88 88 88 88 88 89 89 89 89 90 90 90 89 89 90 90 90 92 94
158 159 159 158 152 146 144 144 141 136 133 130 129 129 128 126 124 122 120 118 116 114 112 109 106 103 102 101 101 101 101 101 101 102 102 103 103 103 103 101 100 99 97 96 96 96 96 96 95 95 95 94 94 93 93 92 91 91 90 90 89 89 88 87 86 86 86 86 86 86 86 86 86 87 87 87 87 88 88 88 87 87 88 88 89 91 93
159 160 158 153 146 140 139 140 136 132 131 130 129 128 127 124 121 118 115 113 111 109 107 104 102 101 100 100 100 100 101 100 101 101 102 102 102 102 101 99 98 97 96 95 95 95 95 95 95 95 94 93 93 92 91 91 90 90 89 88 88 87 86 86 85 85 84 84 84 84 84 84 84 84 85 85 85 85 85 84 84 84 85 86 87 88 91
158 156 151 146 140 135 134 135 134 131 130 129 128 126 123 119 116 113 111 108 106 105 103 102 101 100 99 100 100 100 100 100 100 100 101 101 100 100 99 98 97 96 96 95 94 94 94 94 94 93 93 92 91 90 89 89 88 88 87 87 87 86 85 85 84 84 84 84 84 83 83 83 83 83 84 84 83 83 83 82 81 82 83 84 85 86 88
152 148 142 137 134 132 131 132 132 131 129 126 123 120 118 114 112 109 107 105 104 103 102 101 100 99 99 99 100 100 99 99 99 99 99 99 99 98 98 97 97 96 95 94 93 92 92 92 92 92 91 90 88 87 87 86 86 86 86 86 86 85 85 84 84 83 83 83 83 82 82 81 82 82 82 82 82 82 81 80 80 81 82 83 84 85 86
142 138 134 131 131 130 129 129 128 127 125 122 118 115 113 111 109 107 105 104 103 102 101 101 100 99 99 99 98 98 98 98 98 98 98 98 98 97 96 95 94 94 93 92 91 91 91 91 90 90 89 87 86 85 84 84 84 84 85 85 85 84 84 83 82 82 82 82 81 80 80 80 80 80 80 80 79 79 78 78 78 79 80 82 83 84 85
133 131 129 130 129 127 125 125 124 122 120 117 115 113 110 108 107 106 104 103 102 101 100 99 99 98 98 97 97 96 96 96 96 97 98 98 97 95 94 92 91 90 90 89 89 89 89 88 88 88 87 85 83 83 83 84 84 84 84 84 83 83 82 81 80 80 80 79 78 78 78 78 78 78 77 76 76 76 75 75 75 76 77 78 80 80 82
129 128 127 127 125 122 121 121 120 118 116 115 113 110 108 107 106 105 103 102 102 100 99 98 98 97 96 95 94 93 93 93 94 96 97 97 96 94 92 90 89 88 87 87 87 87 86 86 85 85 84 82 82 82 83 83 83 83 83 82 82 81 80 79 78 78 77 77 76 76 76 76 76 76 75 74 73 73 73 72 72 73 73 75 76 76 77
125 123 122 121 121 119 118 117 117 116 115 113 110 108 107 107 106 105 103 102 101 100 99 98 97 95 93 92 92 91 91 92 93 94 94 94 93 92 91 89 88 86 86 85 85 85 84 83 83 82 82 81 81 81 81 81 80 80 80 80 80 80 79 78 77 77 76 75 75 75 76 76 76 75 74 73 72 71 71 70 69 70 71 72 73 73 74
118 117 118 120 120 118 116 115 115 115 113 110 107 106 107 106 105 104 102 101 100 99 99 97 96 93 92 92 92 91 90 90 91 91 91 91 91 90 89 88 86 85 85 84 84 83 82 81 81 81 80 80 79 79 79 78 78 78 78 78 78 78 78 77 76 76 76 75 75 75 75 75 75 74 74 73 71 70 70 69 68 67 68 69 71 72 72
112 114 118 120 120 118 117 115 113 111 109 107 105 105 106 105 104 103 102 101 100 99 98 97 96 94 93 92 91 90 89 90 90 89 89 89 89 88 87 86 86 85 84 83 82 82 81 80 79 79 79 78 77 77 77 76 76 76 76 76 77 77 77 76 76 76 76 75 75 74 74 74 74 74 74 73 71 69 69 69 68 66 66 67 69 70 71
111 113 116 119 120 119 117 113 110 108 106 105 103 103 104 103 103 102 102 101 99 99 98 98 96 95 93 92 91 90 89 89 88 88 88 88 87 87 86 86 85 85 84 83 82 81 80 79 78 78 77 76 75 75 75 74 74 74 74 74 75 75 75 75 75 75 75 74 74 74 73 72 72 72 73 73 72 69 68 67 68 67 66 66 67 68 69
111 112 115 118 119 118 114 111 108 105 104 102 101 101 101 101 101 101 100 100 99 99 99 98 96 95 94 92 90 89 89 88 87 87 87 87 87 87 86 86 85 84 83 82 81 80 80 79 78 78 76 75 75 75 75 74 74 74 73 73 73 73 73 73 74 74 73 73 72 72 72 71 70 70 70 72 73 72 69 67 66 65 65 65 66 67 67
110 111 114 117 117 115 112 109 106 104 101 99 98 98 98 98 99 99 99 99 99 99 98 96 96 95 93 91 89 88 87 86 86 86 87 87 87 87 86 85 85 84 83 82 81 81 80 78 78 77 76 75 75 75 74 73 73 73 72 71 71 71 71 71 72 72 72 71 71 70 69 69 69 69 68 68 70 72 72 69 66 64 63 63 64 66 67
109 111 113 114 113 112 109 106 104 101 99 97 96 95 95 95 96 96 97 97 97 96 95 94 93 93 92 90 89 88 86 86 85 85 86 86 86 86 85 85 84 83 82 82 82 80 79 78 77 77 75 74 74 74 73 73 72 71 71 70 70 70 69 69 69 70 70 69 69 68 67 67 67 67 67 66 67 68 70 70 69 67 64 62 61 62 64
108 110 111 111 110 107 104 101 99 97 95 94 93 92 92 93 93 94 94 94 93 93 92 91 90 90 89 88 88 87 86 85 85 85 85 85 85 85 84 83 82 82 82 82 81 79 78 77 76 76 74 74 74 73 73 72 71 71 70 69 69 69 68 67 67 68 68 68 67 66 66 65 65 64 65 65 65 65 65 66 67 67 66 64 61 60 60
108 109 109 109 106 103 100 97 94 93 92 91 90 90 90 91 92 92 91 91 91 90 89 89 88 88 87 87 87 86 84 83 83 83 83 83 83 83 82 82 81 81 81 80 79 78 76 76 76 75 74 74 74 73 72 72 71 70 69 69 69 68 67 66 66 66 66 66 65 65 64 64 63 63 63 63 63 63 63 63 63 64 64 63 62 61 60
108 108 107 106 103 100 97 94 92 90 88 88 88 89 90 91 90 90 90 89 89 88 88 87 87 87 87 86 85 84 83 82 81 81 81 82 82 82 81 81 80 80 79 78 77 76 75 75 75 75 74 74 74 73 72 71 71 70 70 69 69 68 67 66 66 65 66 65 64 63 63 63 63 63 62 61 61 61 61 61 61 61 61 60 60 60 60
107 106 105 103 100 97 95 92 89 87 85 85 87 89 90 90 90 89 89 88 88 87 87 87 86 86 86 84 83 82 81 80 79 79 80 81 81 81 80 80 79 78 78 77 76 75 75 75 75 75 75 75 74 73 72 71 70 70 69 69 68 68 67 66 65 65 65 65 64 62 62 62 63 62 62 61 60 60 60 59 59 59 59 59 57 57 58
104 103 101 99 97 95 93 90 87 84 83 84 86 88 90 90 90 89 88 88 87 86 86 86 86 85 84 82 81 80 79 78 78 78 79 80 80 80 79 79 78 77 77 77 76 75 75 75 75 75 75 75 74 72 71 70 70 69 69 68 68 67 67 66 64 63 64 65 64 62 61 61 61 61 61 61 60 60 59 59 58 58 58 58 57 56 55
100 98 96 95 94 93 90 87 84 83 82 83 85 88 90 90 89 89 88 87 86 85 85 85 84 83 82 80 79 78 77 77 77 77 78 79 79 78 78 78 77 77 77 76 76 75 74 75 75 75 75 74 72 70 70 69 69 68 67 67 67 67 66 64 62 60 62 64 64 62 61 61 60 60 60 60 60 60 59 59 58 58 57 57 57 56 55
96 94 92 92 92 90 87 84 82 81 81 83 86 89 90 89 89 88 87 86 84 84 83 83 83 82 80 79 77 76 76 76 75 76 76 77 77 77 76 76 76 77 77 76 75 74 74 75 75 74 73 72 70 68 67 67 67 66 65 65 66 66 65 62 59 59 61 63 63 63 62 61 60 60 59 59 59 59 59 59 58 57 57 56 56 56 55
92 91 90 90 89 87 84 82 81 81 81 83 86 88 88 88 88 87 85 84 83 82 82 82 81 80 79 78 77 76 76 75 74 74 74 75 75 75 74 74 75 75 76 76 75 74 74 75 74 73 71 70 68 66 65 64 64 63 63 64 65 64 62 60 58 58 61 62 62 62 62 61 60 59 59 58 58 58 58 58 57 57 56 55 55 55 54
90 89 88 88 87 85 83 81 81 81 81 83 85 86 86 87 86 85 84 83 82 81 81 81 80 79 78 77 77 76 76 74 73 72 72 73 73 72 71 71 72 73 74 75 74 73 74 74 72 70 69 68 66 64 63 62 62 62 63 63 62 61 59 58 58 58 60 60 60 60 60 60 59 58 58 57 57 57 57 57 56 56 55 55 54 53 52
88 87 87 86 85 84 82 81 81 80 81 82 84 84 85 84 84 84 83 82 81 81 80 79 79 78 78 77 77 76 75 74 73 72 71 71 70 69 69 70 71 72 73 73 72 71 71 71 70 69 68 66 64 62 61 61 61 62 62 61 59 58 58 57 57 57 58 59 58 58 58 58 58 57 56 56 56 56 56 55 55 54 54 54 53 52 50
86 86 85 85 83 82 81 81 80 80 80 81 82 82 82 82 82 82 82 81 81 80 78 78 78 77 77 77 77 76 75 73 72 71 70 69 68 67 68 69 70 71 71 71 71 69 69 69 68 67 66 64 62 61 59 59 60 61 60 58 57 57 56 56 55 56 57 57 56 56 56 56 55 55 55 55 55 54 54 54 53 53 52 52 51 50 49
84 84 84 83 82 81 80 80 79 79 79 79 80 80 80 81 81 81 81 80 79 79 78 77 77 77 77 77 76 75 73 72 71 70 69 67 67 67 68 70 70 69 68 69 69 69 67 67 66 65 64 62 61 59 58 58 59 59 58 56 56 55 55 55 55 56 56 55 54 54 54 54 53 53 53 53 53 53 52 52 51 51 50 49 49 48 49
83 83 82 81 80 80 79 79 79 78 78 78 78 79 79 79 79 79 79 79 78 78 77 77 77 77 77 76 75 73 72 70 69 68 67 67 67 68 69 71 70 67 66 67 68 68 67 66 65 64 62 61 59 57 57 57 57 57 56 56 55 54 54 54 55 54 54 53 52 52 52 52 51 51 51 51 51 51 51 50 50 49 48 47 47 47 48
82 82 82 81 80 79 79 78 78 77 77 77 77 77 77 78 78 78 78 77 77 77 77 77 77 76 75 74 73 72 70 69 68 67 67 67 68 68 69 71 69 66 65 66 68 67 66 65 64 62 60 59 57 56 56 56 56 55 55 55 55 53 53 54 53 52 52 51 50 50 50 50 50 50 50 50 50 50 49 49 49 48 46 46 46 46 47
81 81 81 81 80 79 79 78 77 76 75 75 76 76 76 77 77 77 77 76 76 76 76 76 75 74 73 72 71 70 69 68 67 67 67 68 68 68 69 70 69 66 65 66 67 66 65 65 63 61 59 57 55 55 55 55 55 55 55 55 54 53 53 53 52 51 50 49 49 49 48 48 48 49 49 49 49 48 48 48 47 46 45 45 45 46 45
80 80 80 79 79 79 78 77 76 75 75 75 75 76 76 76 76 76 76 76 76 75 75 74 73 73 72 71 70 70 69 68 68 68 67 68 68 68 67 68 68 67 66 66 66 65 64 63 62 60 58 56 55 55 55 54 54 55 55 54 53 52 52 51 50 50 49 48 48 47 47 47 47 47 47 47 47 47 47 46 46 45 45 45 45 45 44
78 77 77 77 77 77 77 76 76 75 75 75 76 76 76 76 76 76 75 75 74 74 73 73 72 71 71 70 70 70 70 69 68 68 68 68 68 67 66 66 67 67 66 65 64 63 62 61 60 59 57 55 54 54 54 53 54 55 55 53 52 51 50 50 49 49 48 47 47 46 46 46 46 46 46 46 46 46 46 45 44 44 45 45 45 44 43
76 75 75 75 75 75 75 75 75 75 76 76 76 76 76 75 75 75 74 74 73 73 72 72 71 70 70 71 71 71 70 69 69 68 68 68 67 66 64 65 66 66 66 65 63 62 61 60 59 57 55 54 54 54 53 53 53 54 53 52 51 50 49 49 49 48 47 46 46 45 45 45 45 45 45 45 45 44 44 44 43 44 45 45 44 43 42
75 74 74 74 74 74 75 75 75 76 76 76 75 75 75 74 74 74 73 73 72 72 71 71 70 70 71 71 71 71 70 69 69 68 67 67 67 66 65 64 64 64 64 63 62 61 60 58 57 55 54 53 53 53 52 53 53 53 51 50 49 49 48 48 47 47 46 45 45 44 44 44 44 44 44 44 43 43 42 42 43 43 44 44 43 42 40
74 74 74 74 74 74 75 75 75 75 75 74 74 74 74 73 73 73 73 72 72 71 71 71 71 71 70 70 70 70 70 69 67 66 66 65 66 66 65 64 63 62 62 61 61 61 59 57 56 54 53 53 53 52 52 52 52 51 49 49 48 48 47 47 46 45 45 44 44 44 44 44 43 43 43 42 42 42 42 42 42 43 43 42 41 40 39
73 73 73 74 74 74 74 74 73 73 73 73 73 73 73 72 72 72 71 71 71 71 71 71 71 71 70 70 69 69 68 67 65 64 63 64 65 65 64 62 61 60 60 59 59 59 58 56 54 53 52 52 52 52 51 51 50 48 47 47 47 46 46 45 44 43 43 43 43 43 43 43 42 42 42 41 41 41 41 42 42 42 42 41 40 39 38
73 73 73 72 72 72 72 72 72 72 72 72 72 72 71 71 70 70 70 70 71 71 71 71 71 70 70 69 69 68 66 65 63 62 62 63 64 63 62 60 59 59 58 57 56 56 56 55 53 52 51 51 51 51 50 49 48 46 46 46 46 45 44 43 42 42 42 42 42 42 42 42 41 41 40 40 40 40 41 42 42 41 40 39 38 38 38
71 71 71 71 71 71 71 71 71 71 72 71 71 70 69 68 68 68 69 70 71 71 71 70 70 69 69 68 67 66 64 63 62 61 61 62 62 61 60 59 58 57 56 55 54 54 54 53 51 50 50 50 50 49 48 47 45 45 45 44 43 43 42 41 40 40 41 41 41 41 41 41 40 40 39 39 39 40 41 42 42 41 39 38 37 37 38
69 70 70 70 71 71 71 71 71 71 70 69 68 67 67 67 67 68 69 69 70 70 69 69 68 68 67 66 65 64 63 61 60 60 60 60 59 58 57 57 56 55 54 54 53 52 52 51 50 49 49 49 48 47 46 44 44 43 43 42 41 41 40 39 39 39 40 40 40 40 40 40 39 39 39 39 39 40 41 42 41 40 38 37 37 37 38
68 68 69 70 70 71 71 71 70 69 68 67 66 66 66 66 67 67 68 68 68 68 67 67 66 65 64 64 63 62 61 59 58 58 58 58 57 56 55 55 54 53 53 52 51 51 50 49 48 48 47 47 46 45 44 43 42 41 40 39 39 38 38 38 38 38 39 39 39 39 39 39 38 38 38 38 39 41 42 41 40 39 38 38 38 38 37
67 67 68 69 70 70 70 69 68 67 66 65 65 65 65 66 66 66 66 66 66 65 65 64 64 63 62 62 61 60 58 58 57 57 56 55 55 54 53 53 52 52 51 50 50 49 48 48 47 46 46 45 44 43 42 41 40 39 38 37 37 37 36 37 37 38 38 38 38 38 38 38 38 38 38 39 40 41 41 40 39 38 38 38 38 38 37
Wind_Direction
287 288 288 288 289 288 289 290 291 293 294 296 297 297 298 297 297 297 298 298 298 298 298 296 295 295 296 297 297 296 296 295 296 296 295 295 295 294 294 294 294 294 293 293 292 292 291 290 290 289 288 287 287 286 285 284 283 283 282 281 280 280 279 278 277 276 275 274 273 272 271 271 270 269 268 268 267 267 267 266 266 266 265 265 264 264 264
286 287 287 288 288 288 289 290 292 294 295 296 296 296 296 297 297 298 298 297 297 297 296 295 295 295 296 296 295 295 295 295 295 295 295 295 295 295 295 294 294 294 293 292 292 291 290 289 289 288 288 287 287 286 285 285 284 284 283 283 282 282 281 280 279 278 277 276 275 274 273 272 271 270 270 269 268 268 267 267 266 266 266 266 265 265 265
285 286 287 287 288 289 290 291 294 296 296 295 295 295 296 297 297 297 296 296 296 296 296 295 295 296 295 295 295 295 296 295 295 295 295 295 295 295 295 294 294 293 292 291 291 290 289 289 288 287 287 286 286 286 285 285 285 285 284 284 283 283 282 281 280 279 277 276 275 274 273 272 272 271 271 270 269 269 268 268 267 267 266 266 266 266 265
285 286 287 287 288 289 290 293 296 296 294 294 295 296 296 296 296 295 295 295 296 295 295 295 295 295 294 294 295 295 295 295 295 295 295 295 295 294 294 293 293 292 291 291 290 290 289 289 288 288 288 287 287 287 287 286 286 286 285 284 283 282 281 280 279 278 277 276 275 274 273 272 272 271 270 270 269 269 268 268 268 268 268 268 267 267 266
286 287 287 288 289 290 292 295 295 294 293 295 296 295 295 294 294 294 295 295 294 294 294 294 293 293 294 294 294 294 294 294 294 294 295 294 294 293 293 292 292 291 291 290 290 290 290 289 289 289 289 289 289 289 288 288 287 286 286 285 284 283 282 281 279 278 277 276 276 275 274 273 273 272 271 270 269 269 268 268 268 268 268 268 268 268 267
287 287 288 288 289 291 294 294 293 293 294 295 294 294 294 294 294 294 293 293 293 293 293 292 292 293 293 293 294 294 294 294 294 294 294 294 293 292 292 291 291 290 290 290 290 290 290 290 290 290 290 290 290 290 289 288 287 286 286 285 284 283 282 281 280 280 279 278 277 277 276 275 275 274 273 272 272 271 270 270 269 268 268 267 267 267 267
287 288 288 289 290 292 294 293 294 294 294 293 293 293 294 293 293 293 293 293 293 292 292 292 292 293 293 293 294 294 294 294 294 294 293 293 292 291 291 291 290 290 290 290 290 290 290 290 290 290 291 291 291 290 290 289 288 287 286 286 285 284 283 283 282 281 281 280 279 278 277 276 276 275 274 274 273 273 272 272 271 270 270 269 268 267 267
287 288 288 290 291 293 293 294 294 293 293 293 293 293 293 293 293 293 293 293 292 291 291 292 292 292 293 293 294 294 294 293 293 293 292 292 291 291 290 290 290 290 290 290 291 291 291 291 292 292 292 291 291 290 289 289 288 288 287 287 286 285 284 284 283 282 282 281 280 279 279 278 277 276 276 275 274 274 273 273 272 271 271 270 270 269 269
287 288 289 291 291 292 293 294 293 293 293 293 293 292 292 292 293 293 292 291 290 290 291 291 292 292 293 293 294 293 292 292 292 292 291 291 290 290 290 290 290 291 291 291 292 292 292 292 292 292 291 290 290 290 289 289 289 288 288 287 286 285 284 284 283 283 282 282 281 280 279 279 278 277 277 276 275 274 274 273 273 272 272 271 271 271 270
288 289 290 291 291 292 293 293 293 293 293 292 292 291 292 292 292 290 289 288 289 290 291 291 292 292 293 293 293 292 291 292 292 291 290 290 291 291 291 291 291 291 291 292 292 292 292 292 291 291 290 290 290 290 290 289 289 289 288 287 286 285 285 284 283 283 282 281 281 280 279 279 278 278 277 276 275 275 274 274 273 273 272 272 272 272 271
289 290 290 291 292 293 293 292 292 292 292 291 291 291 291 291 290 288 288 289 289 290 291 291 292 292 292 292 291 291 291 291 291 291 291 291 291 291 291 291 291 291 292 292 292 292 292 291 290 290 290 290 290 290 290 289 289 288 287 287 286 285 285 284 283 282 282 281 280 280 279 279 278 278 277 277 277 276 275 274 274 273 273 273 273 272 272
289 290 291 291 292 292 292 292 292 291 291 290 290 290 290 289 288 288 289 290 290 291 291 291 292 292 292 292 291 291 291 291 291 291 292 291 291 291 290 291 291 292 292 292 292 291 291 291 291 291 290 290 290 290 289 289 288 287 286 286 285 284 284 283 283 282 281 281 280 279 279 279 278 278 278 277 277 276 276 275 275 275 275 274 274 273 273
290 290 291 291 291 292 293 292 291 290 290 290 290 290 289 288 288 289 290 291 291 291 291 291 291 292 292 292 291 291 291 291 292 291 291 291 290 290 291 291 292 292 292 291 291 291 291 291 291 291 290 290 290 289 289 288 287 287 286 285 285 284 284 283 282 282 281 281 280 279 279 278 278 278 277 277 277 276 276 276 276 276 276 275 274 274 273
289 289 290 291 292 292 292 291 290 290 290 290 289 289 288 288 290 291 291 291 291 291 291 292 292 292 292 292 291 291 291 291 291 290 290 290 290 291 291 291 291 291 291 291 291 292 292 291 291 290 290 289 289 288 288 288 288 287 287 286 285 285 284 284 283 283 282 281 281 280 280 279 279 279 278 278 277 277 277 277 277 277 276 275 275 274 274
288 289 289 290 291 291 290 290 290 290 289 288 288 288 289 290 290 290 290 290 290 291 291 292 291 291 291 291 291 290 290 290 290 290 290 290 290 291 291 291 291 291 291 292 292 292 291 290 290 289 289 288 288 288 288 288 288 287 287 286 286 285 285 285 284 284 283 283 282 281 281 281 280 280 279 279 278 278 278 278 278 277 277 276 276 275 274
287 288 289 289 290 290 289 289 289 288 287 287 288 288 289 289 289 289 290 290 291 291 291 291 291 291 291 290 290 290 290 290 290 290 290 290 290 290 290 290 291 291 292 292 291 291 290 289 289 288 288 288 289 289 288 288 287 287 287 286 286 286 286 285 285 285 284 283 283 283 282 282 281 280 279 279 279 279 279 278 278 277 276 276 275 275 275
287 288 288 289 289 289 288 287 287 287 287 287 288 288 288 288 289 290 290 291 291 291 291 291 291 290 290 290 290 290 290 290 289 289 289 288 288 288 289 290 290 291 291 291 291 290 289 289 289 289 289 289 289 289 288 288 288 287 287 287 287 286 286 286 285 285 285 284 284 284 283 282 281 281 280 280 280 279 279 278 277 276 276 275 275 274 274
287 288 288 288 288 288 287 286 286 286 286 287 287 287 288 289 290 290 290 291 291 290 290 290 289 289 289 289 288 288 288 288 289 289 288 288 288 289 290 290 290 290 290 290 290 289 289 289 289 289 289 290 290 289 289 289 288 288 288 288 287 287 286 286 286 286 285 285 285 285 284 283 282 281 281 281 280 280 279 278 277 276 276 275 274 274 274
287 287 287 287 287 286 285 285 285 285 285 286 287 288 290 290 290 290 291 290 290 290 289 289 289 288 288 287 288 288 288 288 288 288 288 289 290 290 291 291 290 290 290 290 289 289 289 289 289 289 289 290 290 290 289 289 289 289 288 288 288 287 287 287 287 287 286 286 286 285 285 284 283 283 282 282 281 280 280 279 278 278 277 276 275 275 274
286 287 287 286 285 284 283 284 284 285 285 286 288 290 290 290 290 290 290 290 290 290 289 289 288 288 288 288 288 288 288 288 288 288 289 290 290 291 291 291 291 290 290 290 289 289 289 289 289 289 289 290 290 290 289 289 289 289 289 288 288 288 288 288 288 288 287 287 286 286 285 285 284 284 284 283 282 281 280 280 279 278 278 277 277 276 276
286 286 285 284 283 283 283 284 284 285 286 288 290 290 290 290 290 290 290 290 290 290 289 289 289 289 289 289 289 289 289 289 289 289 290 290 291 291 291 291 291 291 290 289 289 289 289 289 290 290 290 290 290 290 289 289 289 289 289 289 289 289 289 289 288 288 287 287 286 285 285 285 285 285 285 284 283 282 281 280 279 278 278 278 278 277 277
285 284 283 283 283 283 283 284 285 286 288 289 289 289 290 290 291 291 290 290 290 290 290 290 290 291 290 290 290 290 290 290 290 291 291 291 291 291 291 291 291 291 290 290 290 290 290 290 290 290 290 290 290 289 289 289 289 289 289 289 289 288 288 288 288 287 287 286 286 285 285 285 285 285 285 284 283 282 282 282 281 279 278 278 278 278 278
283 283 282 283 282 282 283 284 286 287 287 288 288 289 289 290 290 290 290 290 290 291 291 291 291 291 290 290 291 291 291 291 292 292 292 291 291 291 291 291 291 291 291 291 291 291 291 291 291 291 290 290 290 289 289 289 289 288 288 288 288 288 287 287 287 286 286 286 285 285 285 285 285 285 285 285 284 283 281 281 281 280 280 279 278 278 278
283 283 282 282 281 282 284 285 286 286 286 287 287 288 288 289 289 289 290 290 290 290 290 290 290 290 290 291 291 292 292 292 292 292 292 292 292 292 292 292 292 292 292 292 292 292 292 292 292 291 291 291 291 290 290 290 289 289 288 288 287 287 287 287 286 286 286 286 286 286 286 286 285 284 284 284 285 284 282 281 280 280 280 280 279 279 279
283 282 281 281 281 283 284 284 285 285 286 286 287 287 287 287 288 288 288 288 288 288 289 289 289 290 291 291 292 292 292 292 292 292 292 292 292 292 292 292 292 292 293 293 293 293 293 292 292 292 292 292 291 291 290 290 290 289 289 288 287 287 286 286 286 286 286 286 286 286 285 285 285 284 284 283 284 284 284 283 281 279 279 279 279 279 279
280 280 279 280 281 281 282 283 284 285 285 286 286 286 286 286 286 286 286 286 286 287 287 288 289 290 291 292 292 292 292 292 292 292 292 291 291 291 292 292 292 293 293 293 293 292 292 292 292 292 292 292 291 291 290 290 289 289 288 288 287 286 286 286 286 286 285 285 285 285 284 284 284 284 283 283 282 282 283 284 283 282 280 278 277 277 278
278 278 278 279 279 280 281 282 283 284 285 286 286 286 286 286 285 285 285 285 286 286 287 288 289 290 290 291 291 292 292 292 292 291 291 291 291 291 291 291 292 292 292 292 292 292 292 292 292 292 292 292 291 291 290 290 290 289 289 288 287 287 286 286 286 285 285 285 285 285 285 284 284 283 283 283 282 282 282 282 283 284 283 282 280 278 277
278 278 278 278 279 280 281 283 284 286 286 287 287 287 286 286 285 285 285 286 286 287 288 289 289 290 290 290 290 291 291 291 291 291 290 290 289 290 290 291 291 291 291 291 292 292 293 293 292 292 292 292 291 291 291 291 290 290 290 289 288 288 287 287 286 286 285 285 285 286 285 285 285 284 283 283 283 282 282 282 282 283 283 283 283 282 280
277 278 278 279 280 282 283 285 286 287 288 289 289 288 287 286 286 286 286 287 288 289 289 290 290 290 290 290 290 290 290 290 290 290 289 289 289 289 290 291 291 291 291 292 292 292 293 293 292 292 292 292 291 291 291 292 291 291 290 290 289 288 288 287 287 286 286 286 286 286 286 286 285 285 284 284 283 283 283 283 282 282 282 283 283 283 283
277 278 279 280 282 284 285 286 288 289 290 290 289 288 287 286 287 287 288 288 289 290 290 290 290 289 289 290 290 290 290 290 290 289 289 289 289 290 291 291 292 292 292 292 293 293 293 292 292 292 292 292 291 292 292 292 291 291 290 290 289 288 288 287 287 287 286 286 286 286 286 286 285 285 285 284 284 284 283 283 283 283 283 283 283 284 284
276 278 279 281 283 285 286 287 289 290 290 289 288 287 287 287 287 288 288 289 289 290 289 289 289 289 289 289 290 290 290 290 289 289 289 289 290 291 292 292 292 292 292 292 292 292 292 292 291 291 291 291 291 292 292 291 291 290 290 289 288 288 287 287 287 287 287 286 286 286 285 284 284 285 285 285 284 284 284 284 284 284 284 284 284 284 284
277 279 281 282 283 285 286 288 289 289 289 289 288 287 286 287 287 288 288 289 289 289 289 288 288 288 289 289 290 290 289 289 289 289 289 290 291 291 292 292 292 292 292 292 292 292 291 291 290 290 290 291 291 291 291 290 290 289 289 288 287 286 286 287 288 287 286 285 285 285 284 284 284 284 284 284 284 284 284 284 284 284 284 284 285 284 284
279 280 282 283 284 285 287 288 289 289 288 287 286 286 286 287 287 287 288 288 288 288 288 288 288 288 289 289 289 289 288 288 289 289 289 289 290 290 291 291 292 291 291 291 291 290 290 290 289 289 290 290 290 289 289 289 288 288 288 286 285 285 286 287 287 285 283 283 284 284 284 284 284 284 284 284 284 284 284 284 284 284 284 284 284 284 284
280 282 283 284 285 286 287 288 287 287 286 285 285 285 286 286 286 287 287 287 287 287 287 287 288 289 289 289 289 288 288 289 289 289 289 289 289 289 290 290 290 290 289 289 289 289 289 289 289 289 289 289 289 289 288 288 288 287 286 285 284 285 286 286 285 283 281 282 282 283 283 284 284 284 284 284 283 283 284 284 284 284 284 284 284 284 284
282 282 283 284 284 285 286 286 285 285 285 284 284 284 285 285 285 286 286 286 286 287 287 288 288 289 289 289 289 289 289 290 290 289 289 289 289 289 289 289 288 287 287 287 288 289 289 289 289 289 289 289 289 289 289 289 288 286 285 284 285 286 286 285 283 282 281 281 282 282 283 284 284 284 284 284 283 283 283 284 284 284 284 284 284 284 285
281 282 282 283 283 284 285 284 284 284 283 283 283 283 283 284 284 285 285 286 286 287 287 288 288 289 289 289 290 290 291 291 291 290 290 289 290 290 289 288 287 286 286 287 288 289 289 289 289 289 289 289 290 290 289 289 288 286 285 286 286 286 285 284 283 282 281 281 282 282 283 283 283 283 284 283 283 283 283 284 284 284 285 285 285 285 286
280 280 281 282 283 283 283 283 283 283 282 282 282 282 283 283 284 284 285 286 286 287 288 288 288 289 289 290 290 291 291 291 291 291 291 291 290 290 289 287 286 286 287 288 289 289 289 289 289 289 290 290 290 290 289 288 287 286 286 287 286 285 284 284 283 282 281 282 282 282 283 283 283 283 283 283 283 283 283 284 284 284 284 285 286 286 286
279 280 281 281 282 282 283 282 282 282 282 282 282 282 283 283 284 284 285 286 287 288 288 288 289 289 289 290 290 291 291 291 291 291 291 291 290 290 289 287 287 287 289 290 290 289 289 289 289 289 290 290 291 290 289 288 287 287 287 286 285 285 284 284 283 282 282 283 283 283 283 283 283 283 282 282 282 283 283 283 283 284 284 285 286 286 285
280 281 281 281 281 281 281 282 282 282 282 282 282 282 283 283 284 285 285 286 287 287 288 288 288 289 289 289 290 290 291 291 291 291 291 291 290 289 289 288 288 289 290 290 289 289 289 289 290 290 290 291 291 290 289 288 287 287 286 286 285 285 284 284 283 283 284 284 284 283 283 283 283 282 282 282 282 283 283 283 284 284 285 285 285 285 284
281 281 281 281 281 281 281 281 281 282 282 282 282 282 283 283 284 284 285 286 286 287 287 287 288 288 289 289 290 290 291 291 291 291 291 290 289 289 289 290 290 291 291 290 289 289 289 290 290 291 291 291 291 290 289 287 287 287 286 285 285 285 284 284 284 285 285 285 284 284 283 283 283 283 282 282 283 283 283 284 284 285 285 286 285 284 284
280 280 280 280 280 281 281 282 282 282 282 282 282 283 283 283 284 285 285 286 286 287 287 287 288 288 289 290 290 291 291 291 291 290 290 290 289 290 290 290 291 291 290 289 289 289 290 290 291 291 291 291 290 289 288 288 287 287 285 285 285 285 285 285 285 285 285 285 284 284 284 283 283 283 283 283 283 284 284 284 285 286 286 285 284 283 284
278 278 279 280 281 282 282 283 283 283 283 283 283 283 284 284 285 286 286 286 287 287 288 288 289 289 290 291 291 291 291 290 290 290 290 290 290 290 290 290 290 290 290 289 289 290 290 291 292 292 291 291 290 289 288 288 287 286 285 285 285 285 285 286 286 286 285 284 284 284 284 283 283 283 283 284 284 284 284 285 286 286 285 284 284 285 286
277 279 280 281 282 282 283 283 284 284 284 284 284 284 285 285 286 286 286 287 287 288 288 289 290 290 291 291 291 291 290 290 290 290 290 290 290 290 290 290 290 289 289 289 290 290 291 291 291 291 290 290 289 288 287 287 286 285 284 285 286 286 286 286 285 285 285 285 284 284 284 283 283 283 283 283 283 284 285 285 286 285 285 284 285 286 287
279 280 281 281 282 282 283 283 283 284 284 284 284 285 285 285 286 286 286 287 287 288 289 289 290 291 291 290 290 290 290 290 290 291 291 290 290 290 290 289 289 289 289 290 290 291 290 290 290 290 290 289 288 287 286 285 284 284 285 286 286 286 286 285 285 285 285 285 284 284 284 283 283 283 283 283 283 284 284 285 284 284 284 284 286 287 288
280 281 281 281 282 282 282 283 283 283 284 284 284 285 285 285 286 286 287 288 288 289 290 290 290 290 289 289 290 290 290 290 291 291 291 291 290 290 289 288 288 289 290 290 290 290 289 289 289 289 288 287 286 285 285 284 283 284 285 286 286 286 285 285 285 285 285 285 285 285 284 283 283 282 282 283 283 283 283 283 283 283 283 285 286 288 289
281 281 281 282 282 282 282 283 283 283 283 284 284 285 285 286 287 287 288 289 289 290 290 289 289 288 289 289 289 289 289 290 290 291 291 290 289 289 288 288 288 289 289 289 289 289 289 289 289 288 287 286 285 285 284 283 284 285 286 286 285 285 285 285 285 286 286 285 285 284 284 283 283 282 282 283 283 283 283 282 282 283 284 285 287 288 289
280 281 281 281 281 282 282 282 282 283 283 283 284 285 285 286 287 288 289 289 289 289 288 288 288 288 289 289 289 289 289 290 290 290 290 289 288 287 288 288 288 288 287 287 287 288 288 288 288 287 286 285 284 284 284 284 285 286 286 285 285 285 285 285 286 286 286 285 285 284 283 283 283 282 283 283 283 282 282 282 282 283 284 286 287 289 289
280 280 280 281 281 281 281 281 282 282 283 283 284 285 286 287 288 288 288 288 287 287 287 288 288 289 289 289 289 289 289 290 290 290 289 287 287 287 288 288 288 287 286 286 286 287 287 287 287 286 285 284 284 284 284 285 286 286 285 284 284 284 285 285 286 286 285 284 284 283 283 282 282 282 283 283 282 282 282 282 282 284 285 287 288 289 288
279 280 280 280 281 281 281 281 282 282 283 284 285 286 286 287 287 287 286 286 286 286 287 287 288 288 288 289 289 289 289 289 289 288 287 286 286 287 288 287 287 286 286 286 286 286 286 286 286 285 284 283 284 284 285 285 285 284 284 283 284 285 285 285 286 285 284 283 282 282 282 282 282 282 283 282 282 282 282 282 283 285 286 288 288 287 286
279 280 280 280 281 281 281 281 282 282 283 284 285 286 286 285 285 284 284 284 285 286 286 287 287 288 288 288 289 289 289 289 288 287 287 286 287 287 287 287 286 286 286 286 286 285 285 285 284 284 283 283 284 284 284 284 283 283 283 284 285 285 285 285 284 283 282 281 281 281 281 281 282 282 282 282 282 282 282 283 285 286 288 288 287 286 285
279 279 279 280 280 281 281 282 283 284 284 285 285 285 284 284 283 283 284 284 285 285 286 287 287 287 287 288 288 288 288 288 288 287 287 287 287 287 287 287 286 286 286 286 285 285 284 284 284 283 283 283 283 283 283 283 283 284 284 285 285 284 284 283 282 281 280 280 280 280 281 281 281 281 282 282 282 282 282 284 286 288 289 288 287 286 285
278 279 279 279 280 280 282 283 284 285 285 284 284 283 283 283 284 284 284 285 285 286 286 287 287 287 287 287 288 288 288 288 287 287 287 287 287 287 287 287 286 286 286 285 285 284 284 284 283 283 283 282 282 283 283 283 284 284 284 284 283 283 282 281 280 279 279 279 280 280 280 280 280 281 281 281 281 281 283 285 287 288 288 287 286 285 285
Height
10487 10483 10478 10479 10480 10477 10477 10478 10480 10482 10478 10468 10456 10445 10439 10432 10419 10421 10432 10425 10412 10416 10419 10406 10395 10390 10388 10388 10386 10381 10377 10373 10369 10366 10361 10357 10352 10347 10343 10338 10333 10329 10324 10320 10315 10310 10305 10300 10295 10292 10289 10286 10284 10281 10278 10275 10273 10271 10269 10266 10264 10262 10261 10259 10258 10257 10255 10253 10250 10247 10245 10243 10241 10240 10239 10238 10236 10235 10233 10232 10232 10231 10231 10231 10232 10232 10232
10472 10468 10464 10464 10463 10460 10462 10467 10470 10472 10467 10454 10439 10431 10428 10418 10405 10406 10409 10400 10398 10405 10397 10382 10378 10377 10375 10371 10366 10363 10360 10356 10352 10347 10342 10337 10333 10329 10325 10319 10314 10310 10305 10300 10296 10291 10286 10282 10278 10275 10272 10270 10267 10264 10261 10259 10257 10255 10253 10251 10248 10246 10244 10242 10241 10239 10237 10235 10232 10229 10227 10225 10223 10222 10221 10220 10219 10218 10216 10215 10214 10213 10213 10213 10213 10213 10214
10456 10457 10452 10447 10447 10446 10447 10455 10463 10460 10446 10431 10424 10422 10418 10407 10396 10392 10384 10375 10382 10388 10374 10361 10361 10361 10357 10352 10348 10345 10342 10338 10334 10328 10323 10319 10315 10310 10306 10301 10296 10291 10286 10281 10276 10272 10268 10264 10261 10259 10257 10255 10252 10250 10247 10245 10243 10241 10239 10237 10234 10231 10228 10226 10224 10222 10219 10217 10214 10212 10209 10208 10206 10205 10204 10202 10200 10199 10198 10197 10196 10195 10195 10195 10195 10194 10194
10440 10444 10437 10432 10432 10429 10432 10449 10455 10439 10417 10410 10412 10411 10405 10395 10385 10377 10369 10363 10365 10365 10355 10347 10345 10341 10337 10335 10333 10330 10326 10321 10316 10312 10308 10303 10298 10292 10287 10283 10278 10272 10268 10263 10259 10255 10251 10247 10244 10242 10240 10239 10237 10235 10234 10231 10228 10226 10224 10221 10218 10215 10213 10210 10207 10204 10202 10200 10197 10195 10193 10191 10189 10188 10186 10184 10183 10182 10181 10180 10178 10178 10178 10177 10177 10175 10174
10423 10425 10421 10417 10414 10412 10426 10444 10435 10410 10397 10398 10399 10394 10388 10381 10370 10362 10358 10354 10350 10345 10340 10335 10329 10324 10322 10321 10319 10315 10310 10305 10300 10297 10293 10287 10280 10275 10269 10265 10259 10255 10251 10247 10243 10239 10235 10231 10228 10225 10223 10221 10220 10219 10217 10215 10212 10210 10207 10204 10201 10198 10195 10192 10189 10187 10185 10183 10181 10178 10176 10174 10172 10170 10168 10167 10166 10165 10165 10164 10163 10163 10161 10159 10158 10157 10155
10404 10405 10404 10398 10395 10403 10421 10425 10407 10390 10386 10384 10377 10373 10372 10366 10355 10347 10342 10339 10335 10329 10323 10317 10313 10311 10309 10305 10302 10298 10293 10288 10284 10280 10276 10269 10262 10257 10252 10247 10243 10238 10235 10231 10228 10225 10221 10218 10215 10212 10209 10206 10204 10202 10200 10198 10196 10193 10190 10188 10184 10181 10178 10174 10172 10170 10168 10166 10165 10163 10161 10158 10156 10154 10152 10151 10149 10148 10149 10148 10147 10146 10145 10143 10142 10140 10138
10386 10387 10386 10378 10379 10396 10407 10399 10386 10377 10370 10363 10356 10354 10355 10351 10340 10331 10325 10322 10319 10310 10303 10301 10300 10297 10293 10289 10286 10281 10275 10270 10267 10262 10257 10251 10245 10240 10235 10231 10227 10223 10220 10217 10214 10211 10208 10205 10202 10199 10196 10193 10189 10186 10183 10180 10178 10176 10174 10172 10169 10166 10162 10158 10156 10154 10152 10150 10149 10147 10145 10142 10140 10138 10136 10135 10134 10133 10132 10131 10130 10129 10127 10126 10125 10123 10122
10370 10370 10368 10363 10366 10380 10387 10380 10368 10357 10349 10346 10339 10334 10336 10336 10326 10316 10309 10303 10297 10290 10286 10287 10285 10281 10278 10275 10271 10264 10256 10252 10249 10245 10238 10233 10228 10224 10219 10216 10212 10208 10205 10203 10200 10197 10194 10190 10187 10184 10181 10177 10174 10170 10167 10165 10163 10161 10159 10157 10154 10151 10147 10144 10141 10138 10136 10135 10133 10131 10129 10126 10125 10123 10121 10120 10119 10118 10117 10115 10113 10112 10111 10109 10108 10107 10107
10355 10353 10353 10351 10349 10356 10369 10365 10346 10332 10331 10330 10320 10312 10318 10324 10316 10302 10291 10282 10278 10276 10274 10273 10270 10267 10264 10262 10256 10246 10238 10237 10234 10228 10222 10217 10213 10209 10205 10201 10198 10194 10191 10189 10186 10184 10180 10177 10173 10169 10166 10162 10158 10155 10152 10150 10148 10146 10144 10142 10139 10136 10133 10130 10127 10124 10122 10121 10118 10115 10112 10110 10109 10108 10106 10104 10103 10102 10102 10101 10098 10096 10094 10094 10093 10092 10092
10341 10338 10335 10335 10331 10337 10350 10344 10323 10315 10314 10308 10298 10292 10300 10311 10302 10283 10272 10267 10265 10265 10262 10259 10258 10254 10251 10249 10240 10226 10222 10223 10218 10211 10207 10203 10199 10195 10191 10187 10183 10180 10178 10176 10173 10170 10167 10163 10159 10155 10151 10148 10144 10141 10139 10137 10134 10132 10129 10125 10122 10120 10117 10115 10113 10111 10109 10106 10103 10100 10097 10095 10094 10092 10090 10088 10087 10086 10087 10086 10083 10080 10079 10080 10078 10076 10075
10328 10321 10315 10316 10315 10321 10328 10319 10305 10302 10297 10288 10280 10274 10282 10291 10278 10258 10255 10257 10253 10251 10248 10245 10244 10239 10235 10234 10225 10213 10209 10208 10201 10195 10193 10189 10184 10180 10176 10172 10169 10167 10166 10163 10160 10156 10152 10148 10145 10141 10138 10135 10131 10128 10125 10123 10121 10118 10114 10110 10107 10104 10102 10100 10098 10096 10094 10091 10088 10085 10083 10081 10079 10077 10074 10073 10072 10071 10070 10069 10069 10067 10065 10065 10065 10060 10057
10311 10304 10297 10295 10297 10303 10307 10295 10285 10283 10278 10271 10266 10259 10260 10263 10252 10243 10244 10243 10238 10237 10234 10230 10228 10223 10219 10217 10211 10202 10196 10193 10187 10182 10179 10174 10169 10165 10161 10158 10157 10155 10153 10150 10147 10143 10138 10134 10131 10128 10124 10121 10118 10114 10111 10108 10106 10103 10100 10096 10093 10090 10088 10085 10084 10082 10079 10076 10074 10071 10069 10067 10065 10062 10061 10059 10058 10056 10054 10053 10054 10054 10052 10051 10050 10046 10040
10295 10286 10277 10273 10279 10290 10286 10269 10261 10262 10256 10250 10248 10243 10237 10233 10231 10233 10232 10227 10223 10221 10216 10214 10213 10210 10204 10200 10195 10188 10183 10180 10175 10169 10164 10160 10155 10151 10148 10146 10144 10142 10140 10137 10133 10129 10125 10121 10117 10113 10110 10107 10104 10100 10097 10094 10091 10088 10085 10082 10079 10076 10073 10072 10070 10067 10064 10062 10059 10057 10055 10054 10051 10048 10046 10046 10044 10041 10040 10040 10040 10040 10038 10036 10035 10032 10026
10276 10268 10261 10257 10266 10276 10265 10243 10238 10241 10235 10228 10226 10222 10216 10214 10216 10218 10215 10212 10210 10205 10200 10200 10198 10194 10190 10185 10180 10175 10170 10167 10163 10156 10150 10147 10142 10138 10135 10133 10130 10128 10126 10124 10120 10116 10112 10108 10103 10099 10096 10093 10090 10087 10084 10080 10076 10073 10069 10066 10063 10061 10058 10057 10055 10052 10049 10046 10044 10042 10041 10040 10037 10034 10032 10031 10030 10028 10027 10028 10028 10026 10023 10021 10020 10017 10012
10255 10251 10251 10249 10251 10256 10245 10227 10221 10220 10214 10209 10206 10202 10200 10202 10202 10199 10197 10197 10195 10190 10188 10186 10183 10180 10178 10172 10166 10162 10157 10153 10150 10144 10138 10134 10130 10126 10122 10119 10117 10115 10112 10110 10107 10103 10099 10094 10089 10086 10082 10080 10077 10074 10070 10066 10062 10058 10055 10051 10048 10045 10043 10042 10039 10037 10034 10031 10029 10028 10027 10025 10023 10020 10018 10017 10015 10014 10014 10015 10015 10012 10009 10006 10005 10002 9998
10240 10236 10240 10239 10235 10232 10225 10213 10206 10199 10193 10192 10192 10189 10188 10187 10185 10184 10184 10184 10181 10177 10174 10171 10169 10168 10164 10158 10152 10148 10143 10139 10135 10130 10125 10121 10117 10114 10110 10107 10104 10102 10099 10097 10094 10090 10086 10080 10075 10072 10069 10066 10064 10061 10057 10053 10048 10044 10041 10037 10034 10031 10029 10028 10025 10022 10020 10017 10015 10014 10013 10011 10009 10006 10004 10003 10002 10001 10001 10002 10001 9999 9995 9993 9991 9988 9985
10227 10224 10226 10223 10218 10213 10204 10194 10187 10180 10176 10177 10178 10176 10174 10172 10171 10171 10170 10169 10167 10164 10160 10158 10156 10153 10149 10144 10140 10135 10130 10125 10121 10116 10112 10107 10103 10102 10100 10097 10094 10090 10087 10084 10080 10076 10071 10066 10062 10058 10055 10053 10051 10047 10043 10039 10034 10031 10027 10024 10021 10018 10016 10014 10012 10009 10006 10003 10001 10001 9999 9997 9995 9992 9990 9990 9989 9988 9988 9988 9987 9985 9982 9979 9977 9975 9972
10214 10211 10209 10203 10199 10196 10186 10173 10168 10165 10163 10162 10161 10159 10161 10161 10158 10157 10156 10154 10152 10149 10147 10145 10142 10139 10136 10132 10128 10124 10119 10114 10108 10102 10097 10092 10090 10089 10088 10085 10082 10079 10075 10071 10067 10062 10058 10053 10048 10045 10042 10040 10037 10033 10028 10025 10020 10017 10014 10011 10007 10004 10002 10001 9999 9996 9993 9990 9989 9987 9985 9982 9981 9979 9978 9978 9976 9975 9975 9975 9973 9972 9969 9966 9964 9962 9960
10201 10196 10192 10185 10179 10175 10166 10155 10151 10151 10150 10149 10148 10148 10148 10146 10143 10142 10142 10139 10136 10134 10133 10131 10127 10124 10122 10118 10114 10111 10107 10102 10096 10089 10083 10079 10076 10074 10074 10072 10069 10066 10062 10058 10053 10049 10045 10041 10036 10032 10030 10028 10024 10020 10015 10011 10007 10004 10000 9997 9994 9991 9989 9988 9986 9983 9980 9978 9976 9974 9971 9968 9967 9965 9965 9965 9964 9962 9962 9961 9960 9958 9956 9953 9950 9949 9947
10184 10179 10176 10169 10158 10152 10148 10143 10139 10136 10134 10137 10140 10138 10134 10131 10128 10127 10125 10122 10120 10118 10116 10113 10109 10108 10106 10103 10099 10096 10092 10088 10082 10076 10071 10068 10064 10060 10059 10057 10054 10052 10048 10044 10040 10036 10032 10029 10025 10021 10018 10016 10012 10007 10003 9999 9996 9992 9988 9985 9982 9979 9977 9975 9973 9970 9968 9966 9964 9961 9958 9955 9953 9952 9951 9951 9951 9949 9949 9949 9948 9946 9943 9940 9937 9936 9934
10172 10163 10155 10145 10134 10131 10133 10131 10127 10125 10125 10128 10128 10123 10118 10115 10113 10111 10108 10106 10103 10100 10097 10094 10092 10091 10091 10086 10081 10080 10078 10074 10068 10063 10060 10057 10052 10048 10045 10042 10040 10037 10033 10029 10026 10022 10019 10016 10013 10009 10006 10003 10000 9995 9990 9987 9985 9981 9977 9974 9970 9967 9965 9963 9961 9958 9955 9953 9952 9949 9946 9943 9941 9939 9937 9937 9937 9936 9934 9935 9936 9935 9932 9928 9924 9922 9921
10161 10148 10134 10123 10114 10112 10114 10116 10117 10118 10118 10118 10115 10109 10103 10099 10097 10094 10091 10088 10086 10083 10080 10077 10075 10074 10072 10069 10066 10065 10063 10058 10054 10051 10047 10043 10039 10035 10032 10029 10026 10022 10018 10014 10012 10009 10006 10004 10000 9996 9993 9991 9988 9983 9978 9976 9974 9970 9967 9964 9960 9957 9954 9952 9949 9947 9944 9942 9940 9938 9935 9933 9930 9927 9923 9922 9924 9925 9923 9920 9920 9922 9921 9918 9913 9911 9909
10142 10132 10119 10107 10097 10094 10098 10105 10109 10110 10107 10105 10103 10098 10093 10088 10084 10079 10074 10071 10070 10068 10064 10061 10059 10057 10055 10053 10051 10050 10047 10043 10040 10037 10032 10028 10024 10021 10018 10015 10011 10008 10004 10001 9998 9995 9993 9991 9987 9983 9980 9979 9976 9971 9967 9965 9963 9960 9957 9954 9950 9946 9944 9941 9938 9935 9933 9931 9929 9926 9924 9922 9920 9917 9912 9908 9908 9910 9912 9911 9908 9907 9908 9907 9903 9900 9898
10122 10115 10104 10089 10079 10081 10087 10094 10098 10097 10096 10095 10092 10088 10084 10077 10071 10066 10062 10059 10056 10053 10049 10046 10044 10041 10039 10039 10038 10035 10033 10029 10026 10022 10017 10013 10010 10007 10004 10001 9998 9994 9991 9987 9984 9982 9979 9977 9973 9970 9968 9966 9963 9958 9955 9954 9951 9948 9946 9943 9940 9936 9933 9930 9927 9924 9922 9920 9918 9915 9913 9910 9908 9907 9904 9898 9893 9892 9895 9899 9899 9897 9896 9895 9892 9889 9887
10103 10096 10085 10073 10068 10072 10076 10079 10082 10083 10084 10084 10081 10078 10074 10067 10061 10056 10052 10047 10043 10039 10036 10034 10031 10027 10025 10025 10024 10022 10019 10016 10012 10008 10004 10000 9997 9994 9991 9988 9985 9982 9978 9974 9971 9969 9966 9964 9961 9957 9955 9954 9950 9946 9944 9942 9939 9936 9934 9932 9929 9926 9923 9920 9916 9913 9911 9910 9907 9905 9902 9900 9897 9895 9893 9891 9886 9880 9878 9880 9884 9887 9887 9886 9882 9878 9875
10084 10076 10068 10062 10061 10062 10064 10066 10067 10069 10071 10071 10069 10066 10062 10056 10051 10046 10040 10036 10032 10028 10025 10023 10020 10016 10013 10011 10009 10007 10005 10003 10000 9996 9991 9988 9985 9982 9979 9976 9973 9969 9965 9961 9959 9957 9955 9953 9949 9945 9944 9942 9938 9934 9933 9931 9928 9925 9923 9920 9918 9916 9913 9910 9906 9903 9900 9899 9897 9894 9892 9890 9887 9884 9882 9880 9878 9874 9869 9866 9866 9869 9873 9875 9874 9871 9866
10066 10060 10055 10050 10049 10053 10055 10056 10056 10058 10059 10057 10054 10053 10049 10043 10038 10033 10028 10024 10021 10018 10015 10013 10010 10006 10003 10000 9996 9994 9992 9990 9987 9983 9979 9977 9973 9970 9967 9965 9961 9958 9954 9950 9947 9945 9944 9941 9937 9934 9932 9930 9926 9923 9921 9919 9916 9914 9912 9909 9907 9904 9902 9900 9896 9893 9890 9888 9886 9883 9881 9879 9877 9874 9872 9869 9867 9866 9863 9859 9856 9854 9855 9857 9859 9860 9859
10048 10044 10039 10036 10037 10042 10044 10045 10047 10048 10047 10043 10040 10038 10033 10027 10023 10019 10016 10012 10009 10006 10005 10002 9998 9995 9992 9988 9985 9983 9981 9978 9975 9971 9968 9965 9962 9959 9957 9954 9950 9946 9942 9939 9937 9935 9932 9929 9925 9922 9920 9918 9914 9911 9909 9907 9904 9902 9900 9898 9895 9892 9890 9888 9886 9883 9880 9878 9876 9873 9870 9868 9866 9864 9862 9860 9857 9856 9854 9852 9849 9847 9845 9844 9843 9843 9845
10030 10027 10024 10024 10027 10030 10032 10034 10036 10036 10034 10031 10026 10020 10015 10010 10008 10005 10002 9999 9996 9994 9992 9989 9986 9983 9980 9976 9974 9972 9969 9967 9964 9960 9956 9953 9950 9948 9946 9942 9938 9934 9931 9928 9926 9924 9921 9917 9913 9911 9909 9906 9903 9899 9897 9895 9893 9890 9888 9885 9882 9880 9878 9876 9874 9872 9869 9867 9866 9863 9860 9857 9855 9853 9851 9850 9848 9846 9844 9842 9841 9838 9837 9836 9834 9831 9830
10015 10013 10013 10015 10017 10018 10021 10023 10024 10024 10023 10018 10011 10004 9999 9994 9992 9990 9988 9986 9984 9982 9980 9976 9973 9970 9967 9964 9962 9959 9957 9955 9952 9948 9944 9941 9938 9937 9934 9930 9926 9922 9919 9916 9915 9912 9910 9906 9902 9899 9897 9894 9891 9889 9887 9884 9881 9878 9876 9873 9871 9868 9866 9864 9862 9860 9857 9855 9854 9853 9851 9848 9844 9842 9840 9839 9837 9836 9834 9833 9831 9829 9827 9826 9826 9825 9821
10004 10003 10006 10008 10008 10008 10009 10011 10012 10012 10010 10004 9997 9990 9984 9980 9978 9977 9975 9973 9972 9970 9967 9964 9961 9958 9955 9953 9950 9947 9945 9942 9939 9936 9933 9930 9927 9925 9921 9917 9914 9910 9907 9904 9903 9901 9898 9894 9890 9888 9885 9882 9880 9878 9876 9873 9870 9867 9865 9862 9859 9857 9855 9853 9852 9850 9846 9843 9842 9841 9840 9838 9835 9832 9830 9829 9827 9826 9824 9823 9822 9820 9818 9816 9816 9816 9815
9994 9997 9999 9999 9998 9997 9999 10001 10001 9999 9996 9989 9982 9975 9969 9967 9966 9965 9963 9962 9960 9958 9955 9951 9948 9946 9944 9942 9939 9937 9934 9930 9927 9925 9922 9918 9916 9913 9910 9906 9902 9899 9895 9893 9891 9890 9887 9883 9879 9876 9874 9872 9870 9868 9865 9862 9859 9856 9854 9851 9848 9846 9844 9843 9842 9840 9836 9832 9830 9829 9828 9827 9825 9824 9822 9819 9817 9816 9814 9813 9812 9811 9810 9808 9806 9806 9806
9985 9988 9989 9988 9986 9985 9988 9989 9988 9985 9981 9975 9968 9961 9957 9955 9954 9952 9951 9950 9948 9945 9942 9939 9936 9934 9933 9930 9928 9926 9923 9920 9917 9914 9911 9908 9906 9902 9899 9896 9892 9888 9884 9881 9880 9879 9876 9872 9867 9865 9863 9862 9860 9858 9855 9852 9848 9846 9844 9840 9837 9835 9834 9834 9833 9830 9826 9822 9820 9818 9817 9816 9815 9814 9813 9811 9809 9807 9805 9804 9802 9801 9801 9800 9798 9797 9796
9976 9978 9978 9976 9974 9974 9976 9976 9973 9970 9967 9962 9955 9950 9947 9944 9941 9940 9939 9938 9936 9933 9930 9927 9925 9923 9921 9919 9917 9914 9912 9909 9907 9904 9901 9898 9895 9892 9890 9886 9881 9877 9873 9870 9869 9868 9864 9859 9856 9854 9852 9851 9849 9847 9845 9841 9838 9836 9833 9830 9827 9825 9825 9824 9823 9819 9815 9813 9811 9809 9807 9806 9805 9804 9803 9802 9800 9798 9796 9795 9793 9792 9791 9790 9789 9788 9786
9966 9965 9965 9964 9963 9963 9964 9963 9960 9957 9954 9948 9943 9940 9936 9933 9930 9929 9927 9925 9923 9921 9918 9915 9913 9911 9908 9906 9904 9902 9899 9897 9895 9893 9890 9887 9884 9882 9879 9875 9870 9867 9863 9860 9859 9857 9852 9847 9845 9843 9840 9839 9837 9836 9833 9831 9827 9824 9821 9819 9818 9816 9814 9813 9811 9808 9805 9803 9802 9800 9798 9797 9795 9794 9793 9792 9790 9789 9787 9786 9784 9783 9782 9781 9780 9779 9778
9954 9953 9953 9952 9951 9951 9951 9949 9947 9944 9941 9936 9931 9928 9924 9922 9919 9917 9915 9913 9911 9909 9907 9904 9901 9899 9896 9893 9891 9889 9887 9885 9883 9881 9878 9876 9874 9871 9867 9862 9859 9856 9852 9849 9848 9846 9841 9836 9834 9832 9829 9828 9826 9825 9822 9820 9816 9813 9810 9809 9808 9806 9804 9802 9800 9798 9795 9794 9793 9791 9790 9788 9787 9785 9784 9782 9781 9780 9778 9777 9776 9775 9773 9771 9770 9770 9769
9942 9942 9941 9940 9940 9939 9937 9935 9933 9931 9927 9923 9919 9916 9912 9910 9908 9905 9903 9901 9899 9897 9895 9893 9889 9887 9884 9881 9879 9877 9875 9873 9871 9869 9866 9864 9862 9859 9854 9850 9847 9845 9842 9838 9836 9834 9830 9826 9823 9820 9819 9817 9816 9814 9812 9809 9805 9802 9800 9799 9798 9795 9793 9792 9790 9788 9786 9785 9784 9783 9781 9780 9778 9777 9775 9774 9772 9771 9770 9769 9768 9766 9765 9764 9762 9761 9760
9931 9931 9929 9929 9928 9926 9924 9922 9920 9917 9914 9910 9907 9904 9900 9898 9896 9893 9891 9889 9887 9885 9883 9880 9878 9876 9873 9870 9869 9867 9864 9863 9860 9857 9855 9853 9850 9846 9842 9837 9834 9834 9833 9828 9823 9820 9818 9816 9813 9811 9809 9807 9805 9803 9801 9799 9795 9793 9790 9789 9787 9785 9783 9782 9780 9778 9777 9776 9775 9774 9773 9771 9770 9768 9767 9765 9764 9762 9761 9761 9759 9758 9757 9756 9755 9753 9751
9920 9918 9917 9916 9915 9913 9911 9909 9906 9903 9901 9898 9895 9892 9889 9887 9884 9882 9880 9878 9875 9873 9871 9869 9866 9864 9862 9860 9858 9856 9854 9852 9850 9847 9844 9842 9838 9834 9830 9824 9822 9824 9822 9817 9811 9809 9807 9804 9803 9801 9799 9797 9796 9794 9791 9788 9786 9783 9781 9778 9777 9776 9774 9772 9770 9769 9768 9768 9767 9765 9764 9763 9761 9760 9758 9757 9755 9754 9753 9752 9751 9750 9749 9748 9747 9745 9742
9907 9904 9902 9901 9900 9899 9898 9896 9893 9891 9889 9886 9883 9881 9878 9876 9873 9871 9869 9867 9864 9862 9860 9858 9855 9853 9851 9850 9847 9845 9843 9841 9838 9835 9833 9830 9826 9823 9819 9813 9811 9813 9811 9805 9800 9798 9796 9794 9792 9791 9789 9788 9786 9784 9781 9779 9776 9774 9771 9769 9767 9766 9765 9763 9761 9761 9760 9759 9758 9757 9755 9754 9752 9751 9750 9748 9747 9746 9745 9743 9743 9742 9741 9740 9738 9736 9734
9893 9890 9889 9887 9886 9885 9884 9882 9880 9878 9876 9873 9872 9869 9867 9864 9862 9860 9858 9855 9853 9851 9849 9847 9844 9842 9840 9838 9836 9833 9831 9829 9826 9824 9821 9818 9815 9813 9809 9803 9800 9801 9799 9794 9789 9787 9786 9783 9782 9781 9779 9778 9776 9774 9771 9769 9767 9764 9762 9760 9758 9757 9756 9754 9753 9753 9752 9750 9749 9748 9747 9746 9744 9742 9741 9740 9739 9737 9736 9735 9734 9733 9733 9731 9730 9728 9727
9880 9878 9877 9875 9873 9871 9870 9868 9867 9865 9863 9861 9859 9857 9855 9853 9851 9848 9846 9844 9842 9839 9837 9835 9833 9831 9829 9827 9824 9821 9818 9816 9814 9812 9810 9807 9803 9801 9799 9794 9789 9788 9786 9783 9780 9778 9776 9774 9772 9770 9769 9768 9766 9764 9762 9760 9757 9754 9752 9751 9750 9748 9747 9746 9745 9744 9743 9742 9741 9740 9739 9737 9736 9734 9733 9732 9731 9729 9728 9727 9726 9725 9724 9722 9721 9720 9719
9869 9867 9866 9863 9861 9859 9857 9855 9854 9852 9850 9848 9846 9844 9843 9841 9839 9837 9835 9833 9830 9828 9826 9824 9822 9820 9817 9814 9812 9809 9806 9804 9802 9800 9798 9795 9792 9790 9788 9784 9779 9776 9774 9772 9770 9768 9767 9765 9762 9760 9759 9758 9757 9754 9752 9750 9747 9745 9743 9742 9741 9740 9739 9738 9737 9735 9735 9734 9733 9732 9731 9730 9728 9727 9726 9724 9723 9722 9721 9720 9719 9717 9715 9714 9713 9712 9712
9857 9856 9854 9852 9850 9848 9846 9844 9842 9840 9838 9836 9834 9833 9831 9829 9827 9825 9824 9821 9819 9818 9815 9813 9810 9808 9805 9802 9800 9797 9794 9793 9791 9789 9786 9783 9779 9778 9778 9775 9769 9765 9763 9762 9760 9759 9757 9755 9753 9751 9750 9749 9747 9745 9743 9740 9738 9736 9734 9734 9733 9732 9731 9730 9728 9727 9727 9726 9725 9724 9723 9722 9720 9720 9718 9717 9716 9715 9714 9713 9711 9709 9708 9706 9706 9705 9704
9845 9844 9842 9840 9839 9837 9835 9833 9831 9829 9827 9825 9823 9821 9819 9817 9815 9813 9811 9809 9808 9806 9804 9801 9799 9797 9793 9790 9788 9785 9783 9782 9780 9777 9775 9772 9768 9766 9765 9763 9760 9756 9754 9752 9750 9748 9747 9745 9744 9743 9741 9739 9738 9736 9734 9731 9729 9728 9727 9726 9725 9724 9723 9721 9720 9719 9719 9718 9717 9716 9715 9714 9713 9712 9711 9710 9709 9708 9707 9705 9704 9702 9701 9700 9699 9698 9697
9833 9832 9831 9829 9828 9826 9824 9822 9821 9818 9816 9814 9812 9810 9808 9806 9803 9801 9800 9798 9796 9794 9792 9789 9787 9785 9782 9780 9777 9775 9773 9771 9770 9768 9765 9761 9757 9754 9752 9752 9750 9748 9746 9743 9741 9738 9737 9736 9735 9734 9732 9730 9728 9726 9724 9722 9721 9720 9719 9718 9717 9716 9715 9713 9713 9712 9711 9710 9709 9708 9707 9706 9706 9705 9704 9703 9702 9701 9699 9698 9697 9695 9694 9693 9693 9692 9691
9822 9821 9820 9818 9817 9815 9813 9811 9809 9807 9805 9803 9801 9799 9797 9795 9793 9791 9789 9787 9784 9782 9780 9777 9775 9773 9771 9769 9767 9764 9762 9761 9760 9759 9755 9750 9746 9744 9742 9741 9741 9739 9737 9735 9733 9730 9728 9727 9726 9725 9723 9721 9719 9717 9716 9714 9713 9713 9712 9710 9709 9708 9707 9706 9705 9705 9704 9703 9702 9701 9700 9699 9698 9697 9696 9696 9695 9693 9692 9691 9689 9689 9688 9687 9686 9685 9684
9812 9810 9809 9807 9806 9804 9802 9800 9798 9796 9794 9792 9790 9789 9787 9785 9783 9781 9778 9775 9773 9770 9768 9766 9764 9762 9760 9757 9756 9754 9752 9750 9749 9748 9745 9740 9736 9734 9733 9732 9731 9729 9727 9726 9724 9722 9720 9718 9717 9716 9714 9712 9710 9708 9708 9707 9706 9705 9704 9702 9701 9701 9700 9699 9698 9698 9696 9695 9694 9693 9692 9692 9691 9690 9689 9689 9687 9686 9685 9684 9682 9682 9681 9681 9680 9679 9678
9801 9799 9798 9796 9794 9792 9790 9788 9787 9785 9783 9781 9780 9779 9777 9775 9773 9771 9768 9764 9762 9759 9757 9755 9753 9751 9749 9747 9745 9744 9742 9740 9739 9737 9733 9730 9727 9725 9724 9722 9720 9719 9717 9716 9715 9713 9711 9710 9708 9707 9705 9703 9701 9700 9700 9699 9699 9698 9696 9695 9694 9694 9693 9692 9691 9690 9689 9688 9687 9686 9685 9685 9684 9683 9682 9681 9680 9679 9678 9676 9676 9675 9675 9675 9674 9673 9671
9790 9788 9786 9784 9782 9780 9779 9777 9776 9774 9773 9772 9770 9769 9767 9765 9762 9760 9757 9754 9752 9749 9747 9745 9743 9741 9740 9737 9735 9733 9732 9730 9728 9726 9723 9720 9718 9716 9715 9713 9711 9709 9708 9707 9705 9704 9703 9701 9700 9698 9696 9695 9694 9693 9692 9692 9691 9690 9689 9688 9687 9686 9685 9685 9684 9683 9682 9681 9680 9679 9678 9678 9677 9676 9675 9674 9673 9672 9670 9669 9669 9669 9669 9668 9667 9666 9665
9780 9778 9776 9774 9772 9769 9768 9766 9765 9764 9763 9762 9760 9758 9756 9754 9751 9749 9747 9744 9742 9740 9738 9735 9734 9732 9730 9727 9725 9723 9722 9720 9718 9715 9713 9710 9709 9707 9705 9703 9702 9700 9699 9698 9696 9695 9694 9693 9691 9690 9689 9687 9686 9686 9685 9684 9683 9683 9682 9681 9680 9679 9678 9678 9677 9676 9675 9674 9673 9672 9672 9671 9670 9669 9668 9667 9666 9665 9663 9663 9662 9662 9662 9661 9660 9659 9658
9769 9767 9765 9763 9761 9759 9758 9756 9755 9754 9752 9751 9749 9747 9745 9743 9741 9739 9737 9734 9732 9731 9728 9726 9724 9722 9720 9718 9716 9714 9712 9710 9708 9705 9703 9701 9700 9698 9696 9695 9693 9692 9690 9689 9688 9687 9686 9684 9683 9682 9681 9680 9679 9678 9678 9677 9676 9676 9675 9674 9673 9672 9671 9670 9669 9669 9668 9667 9666 9665 9665 9664 9663 9662 9662 9660 9659 9658 9657 9657 9656 9656 9655 9654 9653 9653 9652